RH
26 32 36 38 39 40 40 40 38 38 38 42 48 54 56 54 56 69 81 84 90 87
28 26 31 34 35 36 36 37 39 37 36 39 50 53 59 58 57 68 77 79 84 88
42 35 32 31 31 32 34 37 37 39 38 40 48 52 57 62 62 66 68 74 79 83
42 44 46 41 34 31 33 36 37 38 41 43 46 51 54 63 66 69 68 74 77 82
36 42 48 51 52 48 39 36 37 39 42 45 43 49 54 65 69 69 71 75 78 81
26 34 40 47 52 64 57 53 51 51 48 47 46 48 57 66 71 71 72 75 79 84
22 27 36 40 48 57 65 63 60 62 61 57 56 53 62 71 74 73 75 77 80 85
18 20 28 36 46 49 64 68 69 68 66 65 60 62 69 76 78 79 80 83 86 84
19 19 21 30 41 53 60 73 79 75 73 72 69 70 77 82 88 87 89 90 91 87
23 20 21 23 29 49 62 74 83 83 83 78 78 79 83 88 92 87 90 92 90 88
23 21 21 24 27 31 56 73 79 85 84 85 85 87 90 95 94 91 88 92 91 91
24 21 22 23 26 29 41 60 82 82 84 90 93 93 95 97 95 93 90 91 93 95
25 21 22 24 27 30 33 46 67 88 84 96 97 99 98 98 98 95 93 94 96 96
20 23 25 28 28 31 34 38 56 71 81 90 92 95 97 99 97 98 99 95 97 98